Date,TemperatureHighF,TemperatureAvgF,TemperatureLowF,DewpointHighF,DewpointAvgF,DewpointLowF,HumidityHigh,HumidityAvg,HumidityLow,PressureMaxIn,PressureMinIn,WindSpeedMaxMPH,WindSpeedAvgMPH,GustSpeedMaxMPH,PrecipitationSumIn
2014-11-4,77.0,74.5,71.0,64.0,61.3,58.0,77,64,54,30.17,30.05,7,5,16,0.00
2014-11-5,79.0,73.4,70.0,69.0,66.6,63.0,90,80,68,30.11,29.99,7,4,13,0.00
2014-11-6,79.0,73.6,70.0,69.0,68.2,67.0,92,84,69,30.05,29.94,6,3,12,0.00
2014-11-7,79.0,72.9,67.0,68.0,66.3,64.0,95,80,65,29.97,29.88,4,1,9,0.00
2014-11-8,79.0,72.2,65.0,70.0,66.5,64.0,97,82,69,29.90,29.80,4,1,8,0.00
2014-11-9,80.0,73.2,66.0,72.0,67.8,62.0,93,83,77,29.86,29.76,8,3,16,0.27
2014-11-10,75.0,69.7,66.0,66.0,63.5,60.0,96,81,68,29.93,29.83,6,3,12,0.43
2014-11-11,75.0,71.4,64.0,65.0,62.7,60.0,88,74,66,29.94,29.86,7,3,13,0.01
2014-11-12,70.0,69.8,69.0,62.0,60.8,60.0,77,73,70,29.92,29.91,4,3,9,0.00
2014-11-26,66.0,64.5,63.0,51.0,48.9,45.0,62,58,47,30.15,30.12,9,8,19,0.04
2014-11-27,69.0,65.7,62.0,58.0,52.7,43.0,76,64,39,30.23,30.13,9,6,20,0.03
2014-11-28,66.0,62.6,58.0,56.0,50.5,46.0,74,65,54,30.21,30.11,10,7,20,0.00
2014-11-29,71.0,65.1,61.0,61.0,57.5,55.0,86,75,67,30.19,30.10,8,5,15,0.00
2014-11-30,76.0,69.8,65.0,65.0,61.2,59.0,88,75,57,30.19,30.10,8,4,15,0.00
2014-12-1,80.0,72.1,67.0,68.0,66.6,65.0,94,83,63,30.17,30.07,5,4,15,0.04
2014-12-2,77.0,70.9,69.0,69.0,67.5,66.0,93,89,76,30.09,29.99,6,4,12,0.00
2014-12-3,77.0,72.4,69.0,70.0,67.6,66.0,93,85,72,30.08,29.98,6,4,14,0.00
2014-12-4,77.0,72.3,69.0,70.0,68.0,66.0,93,86,78,30.09,29.98,8,4,14,0.00
2014-12-5,83.0,75.4,70.0,73.0,70.4,67.0,95,85,70,30.16,30.03,7,4,15,8.52
2014-12-6,82.0,74.9,73.0,72.0,68.7,65.0,94,80,65,30.17,30.08,8,2,12,8.52
2014-12-7,77.0,71.9,69.0,70.0,68.0,65.0,96,87,80,30.11,30.00,7,3,13,0.00
2014-12-8,75.0,70.3,68.0,65.0,63.7,61.0,88,80,69,30.08,30.00,6,3,14,0.00
2014-12-9,73.0,68.1,64.0,62.0,58.7,52.0,83,72,57,30.08,29.99,13,4,17,0.00
2014-12-10,65.0,59.0,58.0,53.0,45.5,42.0,78,57,45,30.18,30.07,9,4,16,0.00
2014-12-11,71.0,60.5,54.0,55.0,52.5,50.0,93,75,55,30.21,30.11,4,1,6,0.00
2014-12-12,70.0,64.8,58.0,59.0,56.0,50.0,86,74,63,30.24,30.14,8,3,13,0.00
2014-12-13,70.0,65.7,62.0,60.0,56.0,51.0,78,71,63,30.16,30.06,9,4,15,0.00
2014-12-14,70.0,65.5,64.0,59.0,55.4,54.0,83,69,62,30.10,30.02,12,4,14,0.00
2014-12-15,73.0,68.0,64.0,63.0,59.7,56.0,85,75,60,30.12,30.03,7,3,11,0.00
2014-12-16,75.0,68.3,62.0,63.0,61.0,59.0,92,78,61,30.20,30.09,9,3,13,0.00
2014-12-17,76.0,68.2,61.0,63.0,60.9,59.0,93,78,56,30.21,30.10,5,2,10,0.00
2014-12-18,77.0,68.2,61.0,65.0,62.3,59.0,96,82,60,30.17,30.05,6,2,13,0.00
2014-12-19,77.0,69.1,64.0,66.0,63.6,62.0,94,83,66,30.10,29.99,7,2,12,0.00
2014-12-20,80.0,66.8,66.0,71.0,60.7,63.0,92,80,72,30.07,29.99,4,1,11,0.00
2014-12-21,81.0,76.2,71.0,74.0,70.5,68.0,92,83,71,30.08,29.98,5,2,10,0.00
2014-12-22,82.0,76.9,74.0,74.0,72.3,70.0,92,86,75,30.01,29.92,5,2,10,0.00
2014-12-23,83.0,78.1,75.0,76.0,73.9,72.0,92,87,76,29.96,29.86,5,2,11,0.00
2014-12-24,83.0,78.3,76.0,77.0,74.6,73.0,96,89,79,29.98,29.87,6,2,12,0.81
2014-12-25,78.0,71.8,67.0,76.0,66.5,61.0,96,84,71,30.16,29.97,12,6,17,0.59
2014-12-26,79.0,73.2,69.0,74.0,69.2,61.0,94,87,71,30.18,30.09,9,3,13,0.16
2014-12-27,81.0,73.8,71.0,74.0,69.9,69.0,98,87,72,30.21,30.11,5,2,11,0.05
2014-12-28,82.0,76.7,72.0,72.0,70.1,68.0,89,80,70,30.15,30.07,4,1,10,0.03
2014-12-29,82.0,76.8,73.0,76.0,72.7,71.0,94,87,79,30.13,30.04,3,1,9,0.01
2014-12-30,82.0,75.2,70.0,74.0,71.0,68.0,97,87,72,30.19,30.08,5,1,10,0.01
2014-12-31,78.0,74.3,72.0,73.0,70.9,69.0,94,89,83,30.21,30.11,8,3,14,0.01
2015-1-1,78.0,74.3,71.0,73.0,71.1,69.0,94,90,83,30.19,30.09,8,2,11,0.01
2015-1-2,84.0,76.8,71.0,75.0,72.1,69.0,96,86,74,30.20,30.11,6,2,11,0.01